KCIKMI Weather Reports


time (UTC)temp
C
wind
direction
speed
KPH
gust
KPH
rain 1hr
cm
rain 24hr
cm
rain mn
cm
humidity
%
barometer
mb
20260906181550 21 240 0.0 0.0 0.00 0.15 0.15 72 1012.7
20260906180028 21 25 0.0 3.2 0.00 0.15 0.15 77 1012.8
20260906174526 20 25 0.0 3.2 0.00 0.15 0.15 71 1012.9
20260906173028 20 331 0.0 6.4 0.00 0.15 0.15 72 1012.9
20260906171530 20 345 0.0 8.0 0.00 0.15 0.15 73 1013.1
20260906170025 20 346 0.0 8.0 0.00 0.15 0.15 72 1013.1
20260906164524 20 24 6.4 12.9 0.00 0.15 0.15 68 1013.1
20260906163026 21 357 1.6 8.0 0.00 0.15 0.15 67 1013.2
20260906161528 20 351 0.0 11.3 0.00 0.15 0.15 69 1013.2
20260906160020 20 344 3.2 11.3 0.00 0.15 0.15 70 1013.2
20260906154517 20 347 1.6 14.5 0.00 0.15 0.15 75 1013.4
20260906153015 19 6 3.2 11.3 0.00 0.15 0.15 73 1013.6
20260906151513 19 8 0.0 9.7 0.00 0.15 0.15 78 1013.6
20260906150013 18 315 3.2 11.3 0.00 0.15 0.15 79 1013.7
20260906144509 18 353 1.6 4.8 0.00 0.15 0.15 81 1013.7
20260906143007 17 360 0.0 9.7 0.00 0.15 0.15 83 1013.7
20260906141506 17 349 0.0 9.7 0.00 0.15 0.15 83 1013.7
20260906140011 17 3 0.0 3.2 0.00 0.15 0.15 86 1013.7
20260906134503 17 5 1.6 6.4 0.00 0.15 0.15 91 1013.6
20260906133002 16 1 0.0 4.8 0.00 0.15 0.15 92 1013.6
20260906131502 16 351 0.0 0.0 0.00 0.15 0.15 93 1013.5
20260906130001 16 360 0.0 4.8 0.03 0.15 0.15 95 1013.6
20260906124500 16 353 0.0 4.8 0.05 0.15 0.15 95 1013.6
20260906123059 16 3 0.0 3.2 0.05 0.15 0.15 95 1013.4
20260906121608 15 1 0.0 0.0 0.05 0.15 0.15 95 1013.3
20260906120057 15 360 0.0 0.0 0.03 0.13 0.13 95 1013.4
20260906114609 15 360 0.0 0.0 0.00 0.10 0.10 95 1013.3
20260906113107 15 350 0.0 0.0 0.05 0.10 0.10 95 1013.1
20260906111552 15 11 0.0 0.0 0.05 0.10 0.10 95 1012.8
20260906110049 15 349 0.0 0.0 0.05 0.10 0.10 95 1012.5
20260906104548 15 335 1.6 9.7 0.05 0.10 0.10 94 1012.3
20260906103043 16 360 4.8 12.9 0.00 0.05 0.05 92 1012.3
20260906101540 17 20 1.6 6.4 0.00 0.05 0.05 92 1012.0
20260906100037 17 2 1.6 8.0 0.00 0.05 0.05 92 1011.7
20260906094546 17 346 0.0 4.8 0.00 0.05 0.05 92 1011.6
20260906093033 16 7 0.0 0.0 0.00 0.05 0.05 93 1011.3
20260906091536 16 7 0.0 0.0 0.00 0.05 0.05 95 1011.2
20260906090032 16 7 0.0 0.0 0.03 0.05 0.05 95 1011.1
20260906084533 16 8 0.0 0.0 0.03 0.05 0.05 94 1011.0
20260906083032 16 8 0.0 0.0 0.03 0.05 0.05 94 1010.9
20260906081538 16 8 0.0 0.0 0.03 0.05 0.05 94 1010.8
20260906080031 16 8 0.0 0.0 0.00 0.03 0.03 93 1010.6
20260906074528 17 4 0.0 0.0 0.00 0.03 0.03 93 1010.6
20260906073027 16 360 0.0 1.6 0.00 0.03 0.03 93 1010.7
20260906071531 16 358 0.0 1.6 0.00 0.03 0.03 93 1010.7
20260906070026 16 5 0.0 3.2 0.00 0.03 0.03 93 1010.7
20260906064527 16 6 0.0 1.6 0.00 0.03 0.03 93 1010.7
20260906063023 17 9 0.0 0.0 0.00 0.03 0.03 93 1010.7
20260906061521 17 6 0.0 0.0 0.03 0.03 0.03 93 1010.6
20260906060020 17 6 0.0 0.0 0.03 0.03 0.03 92 1010.8
20260906054518 17 5 0.0 1.6 0.03 0.03 0.03 91 1010.7
20260906053017 17 12 0.0 1.6 0.03 0.03 0.03 91 1011.0
20260906051517 17 1 0.0 1.6 0.00 0.00 0.00 89 1011.1
20260906050016 17 5 0.0 3.2 0.00 0.00 0.00 89 1011.2
20260906044512 17 11 0.0 1.6 0.00 0.00 0.00 89 1011.1
20260906043012 17 8 0.0 1.6 0.00 0.00 0.00 88 1011.0
20260906041510 18 360 0.0 3.2 0.00 0.00 0.00 88 1011.0
20260906040014 18 356 0.0 1.6 0.00 0.00 0.00 88 1011.0
20260906034505 18 356 0.0 0.0 0.00 0.00 0.00 88 1010.8
20260906033003 18 356 0.0 1.6 0.00 0.00 0.00 87 1010.6
20260906031503 18 356 0.0 1.6 0.00 0.00 0.00 86 1010.6
20260906030004 18 356 0.0 0.0 0.00 0.00 0.00 86 1010.7
20260906024502 18 356 0.0 0.0 0.00 0.00 0.00 85 1010.6
20260906023002 18 356 0.0 0.0 0.00 0.00 0.00 85 1010.6
20260906021500 18 356 0.0 1.6 0.00 0.00 0.00 84 1010.7
20260906020000 18 356 0.0 4.8 0.00 0.00 0.00 82 1010.6
20260906014600 18 3 0.0 1.6 0.00 0.00 0.00 82 1010.7
20260906013100 18 3 0.0 3.2 0.00 0.00 0.00 82 1010.6
20260906011609 18 3 1.6 4.8 0.00 0.00 0.00 81 1010.8
20260906010057 18 346 0.0 1.6 0.00 0.00 0.00 81 1010.6
20260906004600 18 344 0.0 1.6 0.00 0.00 0.00 82 1010.4
20260906003056 18 176 0.0 0.0 0.00 0.00 0.00 81 1010.4
20260906001553 19 176 0.0 0.0 0.00 0.00 0.00 81 1010.1
20260906000059 19 261 0.0 0.0 0.00 0.00 0.00 81 1010.0
20260905234549 19 345 0.0 1.6 0.00 0.00 0.00 80 1009.8
20260905233053 19 284 0.0 0.0 0.00 0.00 0.00 80 1009.7
20260905231550 20 359 0.0 3.2 0.00 0.00 0.00 79 1009.7
20260905230047 20 338 0.0 1.6 0.00 0.00 0.00 78 1009.6
20260905224548 20 18 0.0 0.0 0.00 0.00 0.00 78 1009.6
20260905223046 20 350 0.0 4.8 0.00 0.00 0.00 77 1009.5
20260905221559 21 292 0.0 4.8 0.00 0.00 0.00 76 1009.4
20260905220043 21 360 0.0 4.8 0.00 0.00 0.00 77 1009.2
20260905214540 21 1 0.0 1.6 0.00 0.00 0.00 77 1008.9
20260905213038 21 354 0.0 4.8 0.00 0.00 0.00 75 1008.6
20260905211537 22 338 3.2 6.4 0.00 0.00 0.00 74 1008.5
20260905210036 22 355 3.2 6.4 0.00 0.00 0.00 73 1008.4
20260905204538 22 358 1.6 6.4 0.00 0.00 0.00 73 1008.2
20260905203035 22 321 0.0 8.0 0.00 0.00 0.00 73 1008.1
20260905201536 22 323 1.6 4.8 0.00 0.00 0.00 72 1007.9
20260905200038 22 332 0.0 6.4 0.00 0.00 0.00 74 1007.9
20260905194533 22 341 1.6 8.0 0.00 0.00 0.00 73 1007.9
20260905193040 23 336 0.0 11.3 0.00 0.00 0.00 71 1008.0
20260905191532 23 16 1.6 6.4 0.00 0.00 0.00 73 1007.9
20260905190041 22 21 0.0 8.0 0.00 0.00 0.00 73 1008.0
20260905184534 22 212 0.0 4.8 0.00 0.00 0.00 75 1008.0
20260905183031 22 348 0.0 6.4 0.00 0.00 0.00 75 1008.1